| time (UTC) | temp F | wind direction | speed MPH | gust MPH | rain 1hr in | rain 24hr in | rain mn in | humidity % | barometer mb |
| 20260507184550 | 62 | 68 | 0.0 | 7.0 | 0.00 | 4.79 | 4.79 | 39 | 1008.5 |
| 20260507183047 | 62 | 266 | 1.0 | 5.0 | 0.00 | 4.79 | 4.79 | 39 | 1008.7 |
| 20260507181538 | 62 | 323 | 0.0 | 2.0 | 0.00 | 4.79 | 4.79 | 39 | 1008.8 |
| 20260507180037 | 61 | 346 | 1.0 | 4.0 | 0.00 | 4.79 | 4.79 | 38 | 1009.2 |
| 20260507174532 | 61 | 345 | 1.0 | 4.0 | 0.00 | 4.79 | 4.79 | 39 | 1009.4 |
| 20260507173038 | 61 | 84 | 2.0 | 4.0 | 0.00 | 4.79 | 4.79 | 40 | 1009.5 |
| 20260507171537 | 61 | 349 | 1.0 | 2.0 | 0.00 | 4.79 | 4.79 | 38 | 1009.9 |
| 20260507170017 | 61 | 292 | 1.0 | 8.0 | 0.00 | 4.79 | 4.79 | 41 | 1010.1 |
| 20260507164512 | 61 | 333 | 0.0 | 6.0 | 0.00 | 4.79 | 4.79 | 36 | 1010.3 |
| 20260507163010 | 60 | 300 | 0.0 | 4.0 | 0.00 | 4.79 | 4.79 | 38 | 1010.4 |
| 20260507161503 | 60 | 290 | 0.0 | 4.0 | 0.00 | 4.79 | 4.79 | 39 | 1010.5 |
| 20260507160059 | 60 | 303 | 0.0 | 4.0 | 0.00 | 4.79 | 4.79 | 39 | 1010.8 |
| 20260507154555 | 61 | 326 | 0.0 | 3.0 | 0.08 | 4.79 | 4.79 | 40 | 1010.9 |
| 20260507153056 | 60 | 73 | 0.0 | 4.0 | 0.22 | 4.79 | 4.79 | 43 | 1011.0 |
| 20260507151546 | 59 | 287 | 1.0 | 4.0 | 1.37 | 4.79 | 4.79 | 45 | 1011.2 |
| 20260507150043 | 59 | 286 | 1.0 | 5.0 | 1.40 | 4.79 | 4.79 | 45 | 1011.4 |
| 20260507144537 | 58 | 359 | 0.0 | 2.0 | 1.32 | 4.71 | 4.71 | 45 | 1011.5 |
| 20260507143032 | 58 | 28 | 1.0 | 4.0 | 1.18 | 4.57 | 4.57 | 46 | 1011.5 |
| 20260507141528 | 57 | 338 | 0.0 | 6.0 | 0.00 | 3.39 | 3.39 | 48 | 1011.4 |
| 20260507140025 | 57 | 354 | 2.0 | 5.0 | 0.00 | 3.39 | 3.39 | 46 | 1011.5 |
| 20260507134522 | 56 | 311 | 0.0 | 6.0 | 0.00 | 3.39 | 3.39 | 47 | 1011.5 |
| 20260507133016 | 55 | 9 | 1.0 | 5.0 | 0.00 | 3.39 | 3.39 | 45 | 1011.6 |
| 20260507131516 | 54 | 335 | 0.0 | 2.0 | 0.00 | 3.39 | 3.39 | 39 | 1011.6 |
| 20260507130007 | 53 | 275 | 0.0 | 1.0 | 0.00 | 3.39 | 3.39 | 15 | 1011.5 |
| 20260507124514 | 51 | 20 | 0.0 | 2.0 | 0.00 | 3.39 | 3.39 | 1 | 1011.4 |
| 20260507123005 | 50 | 357 | 0.0 | 1.0 | 0.00 | 3.39 | 3.39 | 1 | 1011.5 |
| 20260507121603 | 49 | 57 | 0.0 | 1.0 | 0.00 | 3.39 | 3.39 | 1 | 1011.5 |
| 20260507114549 | 48 | 23 | 0.0 | 0.0 | 0.00 | 3.39 | 3.39 | 1 | 1011.4 |
| 20260507113050 | 48 | 23 | 0.0 | 0.0 | 0.00 | 3.39 | 3.39 | 1 | 1011.3 |
| 20260507111541 | 48 | 24 | 0.0 | 0.0 | 0.00 | 3.39 | 3.39 | 1 | 1010.9 |
| 20260507110040 | 48 | 24 | 0.0 | 0.0 | 0.00 | 3.39 | 3.39 | 1 | 1010.8 |
| 20260507104536 | 48 | 24 | 0.0 | 0.0 | 0.00 | 3.39 | 3.39 | 1 | 1010.6 |
| 20260507103033 | 48 | 23 | 0.0 | 0.0 | 0.00 | 3.39 | 3.39 | 1 | 1010.4 |
| 20260507101527 | 48 | 23 | 0.0 | 0.0 | 0.00 | 3.39 | 3.39 | 1 | 1010.3 |
| 20260507100033 | 48 | 23 | 0.0 | 0.0 | 0.00 | 3.39 | 3.39 | 1 | 1010.2 |
| 20260507094518 | 48 | 23 | 0.0 | 0.0 | 0.00 | 3.39 | 3.39 | 1 | 1010.0 |
| 20260507093014 | 48 | 23 | 0.0 | 0.0 | 0.00 | 3.39 | 3.39 | 1 | 1009.9 |
| 20260507091509 | 48 | 19 | 0.0 | 0.0 | 0.00 | 3.39 | 3.39 | 1 | 1009.9 |
| 20260507090006 | 48 | 19 | 0.0 | 0.0 | 0.00 | 3.39 | 3.39 | 1 | 1009.9 |
| 20260507084501 | 49 | 20 | 0.0 | 0.0 | 0.00 | 3.39 | 3.39 | 1 | 1010.0 |
| 20260507083057 | 49 | 19 | 0.0 | 0.0 | 0.00 | 3.39 | 3.39 | 1 | 1009.9 |
| 20260507081552 | 49 | 19 | 0.0 | 1.0 | 0.00 | 3.39 | 3.39 | 1 | 1010.0 |
| 20260507080047 | 49 | 20 | 0.0 | 0.0 | 0.00 | 3.39 | 3.39 | 1 | 1009.8 |
| 20260507074543 | 49 | 20 | 0.0 | 1.0 | 0.00 | 3.39 | 3.39 | 1 | 1010.4 |
| 20260507073043 | 50 | 314 | 0.0 | 0.0 | 3.36 | 3.39 | 3.39 | 1 | 1010.3 |
| 20260507071536 | 50 | 315 | 0.0 | 0.0 | 3.39 | 3.39 | 3.39 | 1 | 1010.2 |
| 20260507070032 | 50 | 271 | 0.0 | 0.0 | 3.39 | 3.39 | 3.39 | 1 | 1010.2 |
| 20260507064527 | 50 | 271 | 0.0 | 0.0 | 2.89 | 2.89 | 2.89 | 1 | 1010.1 |
| 20260507063020 | 51 | 271 | 0.0 | 0.0 | 0.00 | 0.00 | 0.00 | 1 | 1010.0 |
| 20260507061523 | 51 | 271 | 0.0 | 0.0 | 0.00 | 0.00 | 0.00 | 1 | 1009.9 |
| 20260507060012 | 51 | 271 | 0.0 | 1.0 | 0.00 | 0.00 | 0.00 | 1 | 1010.3 |
| 20260507054508 | 51 | 264 | 0.0 | 1.0 | 0.00 | 0.00 | 0.00 | 1 | 1009.9 |
| 20260507053005 | 52 | 48 | 0.0 | 1.0 | 0.00 | 0.00 | 0.00 | 1 | 1009.5 |
| 20260507051559 | 52 | 71 | 0.0 | 1.0 | 0.00 | 0.00 | 0.00 | 1 | 1008.9 |
| 20260507050058 | 53 | 20 | 0.0 | 1.0 | 0.00 | 0.00 | 0.00 | 5 | 1009.1 |
| 20260507044551 | 53 | 21 | 0.0 | 1.0 | 0.00 | 2.78 | 0.00 | 2 | 1009.3 |
| 20260507043048 | 53 | 13 | 0.0 | 1.0 | 0.00 | 2.78 | 0.00 | 2 | 1009.2 |
| 20260507041546 | 54 | 27 | 0.0 | 0.0 | 0.00 | 2.78 | 0.00 | 1 | 1009.3 |
| 20260507040036 | 54 | 34 | 0.0 | 1.0 | 0.00 | 2.78 | 0.00 | 1 | 1009.4 |
| 20260507034541 | 54 | 329 | 0.0 | 2.0 | 0.00 | 3.90 | 2.78 | 1 | 1009.4 |
| 20260507033027 | 54 | 353 | 0.0 | 1.0 | 0.00 | 3.90 | 2.78 | 1 | 1009.3 |
| 20260507031523 | 55 | 354 | 0.0 | 4.0 | 0.00 | 3.90 | 2.78 | 1 | 1009.0 |
| 20260507030022 | 56 | 18 | 0.0 | 3.0 | 0.00 | 3.90 | 2.78 | 1 | 1009.0 |
| 20260507024515 | 57 | 4 | 0.0 | 3.0 | 0.00 | 3.90 | 2.78 | 1 | 1009.0 |
| 20260507023009 | 57 | 297 | 0.0 | 1.0 | 0.00 | 3.90 | 2.78 | 1 | 1009.1 |
| 20260507021505 | 58 | 294 | 0.0 | 1.0 | 0.00 | 3.90 | 2.78 | 1 | 1009.3 |
| 20260507014557 | 59 | 283 | 0.0 | 1.0 | 0.00 | 3.90 | 2.78 | 1 | 1008.9 |
| 20260507013110 | 60 | 303 | 0.0 | 1.0 | 0.00 | 3.90 | 2.78 | 1 | 1008.8 |
| 20260507011548 | 64 | 359 | 0.0 | 3.0 | 0.00 | 3.90 | 2.78 | 1 | 1008.4 |
| 20260507010045 | 64 | 268 | 0.0 | 0.0 | 0.00 | 3.90 | 2.78 | 1 | 1007.8 |
| 20260507004538 | 64 | 268 | 0.0 | 0.0 | 0.00 | 3.90 | 2.78 | 1 | 1007.7 |
| 20260507003034 | 64 | 268 | 0.0 | 0.0 | 0.00 | 3.90 | 2.78 | 1 | 1007.5 |
| 20260507001538 | 64 | 268 | 0.0 | 1.0 | 0.00 | 3.90 | 2.78 | 1 | 1007.4 |
| 20260507000028 | 64 | 264 | 0.0 | 1.0 | 0.00 | 3.90 | 2.78 | 1 | 1007.6 |
| 20260506234540 | 64 | 273 | 0.0 | 2.0 | 0.00 | 3.90 | 2.78 | 1 | 1007.2 |
| 20260506233017 | 64 | 269 | 0.0 | 1.0 | 0.00 | 3.90 | 2.78 | 1 | 1007.3 |
| 20260506231512 | 64 | 264 | 0.0 | 2.0 | 0.00 | 3.90 | 2.78 | 1 | 1007.2 |
| 20260506230007 | 64 | 266 | 0.0 | 3.0 | 0.00 | 3.90 | 2.78 | 1 | 1007.2 |
| 20260506224514 | 64 | 259 | 0.0 | 3.0 | 0.00 | 3.90 | 2.78 | 1 | 1007.1 |
| 20260506223103 | 64 | 257 | 1.0 | 5.0 | 0.00 | 3.90 | 2.78 | 1 | 1007.1 |
| 20260506221554 | 64 | 223 | 0.0 | 1.0 | 0.00 | 3.90 | 2.78 | 1 | 1007.1 |
| 20260506220104 | 64 | 274 | 0.0 | 2.0 | 0.00 | 3.90 | 2.78 | 1 | 1006.9 |
| 20260506214545 | 64 | 267 | 0.0 | 3.0 | 0.00 | 3.90 | 2.78 | 1 | 1006.8 |
| 20260506213041 | 63 | 271 | 0.0 | 4.0 | 0.00 | 3.90 | 2.78 | 1 | 1006.8 |
| 20260506211540 | 63 | 229 | 1.0 | 5.0 | 0.00 | 3.90 | 2.78 | 1 | 1006.6 |
| 20260506210031 | 63 | 261 | 0.0 | 4.0 | 0.00 | 3.90 | 2.78 | 1 | 1006.5 |
| 20260506204526 | 63 | 241 | 0.0 | 5.0 | 0.00 | 3.90 | 2.78 | 1 | 1006.3 |
| 20260506203025 | 62 | 257 | 0.0 | 8.0 | 0.00 | 3.90 | 2.78 | 1 | 1006.3 |
| 20260506201517 | 62 | 274 | 1.0 | 7.0 | 0.00 | 3.90 | 2.78 | 1 | 1006.4 |
| 20260506200012 | 63 | 276 | 0.0 | 4.0 | 0.00 | 3.90 | 2.78 | 1 | 1006.6 |
| 20260506194508 | 63 | 265 | 1.0 | 7.0 | 0.00 | 3.90 | 2.78 | 1 | 1006.7 |
| 20260506193004 | 63 | 223 | 1.0 | 6.0 | 0.00 | 3.90 | 2.78 | 1 | 1007.1 |
| 20260506191600 | 63 | 271 | 1.0 | 8.0 | 0.00 | 3.90 | 2.78 | 1 | 1007.0 |
| 20260506190055 | 63 | 227 | 0.0 | 6.0 | 0.00 | 3.90 | 2.78 | 1 | 1007.1 |